LiveATC.Net - Listen to live air traffic control over the Internet!


ICAO: KSUZ  IATA: SUZ   Airport: Saline County Regional Airport
City: Benton   State/Province: Arkansas
Country: United States   Continent: North America
KSUZ METAR Weather: KSUZ 040215Z AUTO 00000KT 9SM CLR 24/23 A2989 RMK A01
KSUZ Flight Activity (FlightAware)
KSUZ Airport Info   (iFlightPlanner)
KSUZ VFR Sectional Chart   (iFlightPlanner) 
KSUZ IFR Low Chart   (iFlightPlanner) 

KSUZ CTAF (Air Race Classic)
Feed Status: DOWN
Last heard on: 2019-06-27 19:48:02 (342 days 6 hours 55 minutes ago)
Archive Access: KSUZ CTAF (Air Race Classic)
FacilityFrequency
Saline County CTAF122.800

NOTICE

Unauthorized use prohibited. See LiveATC.net Terms of Service


Airport/ARTCC Code
Frequency Search
(e.g., 124.400, 128.75)
Site-wide search
 


Browse Feeds
Top 50 Feeds
Coverage Map
Bad Weather Areas

LiveATC FAQ
Offer LiveATC feed
Contact LiveATC.net
Press Inquiries

LiveATC on iPhone
LiveATC on Android

Windows Phone
Windows 8/10

LiveATC Mobile
(Mobile browser)

ATC Audio Archives
Interesting Recordings

LiveATC Forums


Home Page
About LiveATC.net
Make a Donation
Terms of Use
Privacy Policy

Canadian Air Freqs

AIRMETs/SIGMETs

FAA Airport Status
Nat'l Airspace Status
Arrival Demand Charts


Server Software By:
Icecast.org
Liquidsoap